When you browse on this site, cookies collect data to enhance your experience and personalize the content and advertising you see.
Visit our Privacy Policy to learn more. By continuing to use the site, you agree to this use of cookies and data.
  • In Denmark
  • List of Countries
  • For 7 days
  • Water Temperature
  • Satellite Maps
  • Weather Map
  • Weather Widgets
  • user-avatar
    Login

    Hourly Weather Akaba

    Today, 19 April, Friday

    Time Temperature Precipitation Wind Pressure Humidity
    00:00 +19°C° 0 mm 2 mps 751 mmHg 47%
    01:00 +19°C° 0 mm 1 mps 751 mmHg 49%
    02:00 +19°C° 0 mm 1 mps 751 mmHg 51%
    03:00 +19°C° 0 mm 1 mps 751 mmHg 52%
    04:00 +18°C° 0 mm 1 mps 751 mmHg 53%
    05:00 +16°C° 0 mm 0 mps 751 mmHg 55%
    06:00 +19°C° 0 mm 1 mps 751 mmHg 50%
    07:00 +20°C° 0 mm 1 mps 751 mmHg 46%
    08:00 +20°C° 0 mm 2 mps 751 mmHg 42%
    09:00 +21°C° 0 mm 3 mps 751 mmHg 37%
    10:00 +22°C° 0 mm 4 mps 751 mmHg 32%
    11:00 +23°C° 0 mm 5 mps 751 mmHg 27%
    12:00 +24°C° 0 mm 6 mps 750 mmHg 24%
    13:00 +26°C° 0 mm 6 mps 750 mmHg 22%
    14:00 +26°C° 0 mm 7 mps 750 mmHg 19%
    15:00 +26°C° 0 mm 7 mps 750 mmHg 19%
    16:00 +24°C° 0 mm 7 mps 750 mmHg 19%
    17:00 +24°C° 0 mm 8 mps 750 mmHg 19%
    18:00 +23°C° 0 mm 6 mps 750 mmHg 22%
    19:00 +22°C° 0 mm 5 mps 751 mmHg 26%
    20:00 +21°C° 0 mm 4 mps 751 mmHg 29%
    21:00 +21°C° 0 mm 4 mps 751 mmHg 35%
    22:00 +20°C° 0 mm 4 mps 751 mmHg 41%
    23:00 +19°C° 0 mm 3 mps 751 mmHg 46%

    Tomorrow, 20 April, Saturday

    Time Temperature Precipitation Wind Pressure Humidity
    00:00 +18°C° 0 mm 3 mps 751 mmHg 50%
    01:00 +18°C° 0 mm 3 mps 751 mmHg 53%
    02:00 +17°C° 0 mm 2 mps 751 mmHg 56%
    03:00 +17°C° 0 mm 2 mps 751 mmHg 59%
    04:00 +16°C° 0 mm 2 mps 751 mmHg 61%
    05:00 +16°C° 0 mm 1 mps 751 mmHg 63%
    06:00 +16°C° 0 mm 1 mps 751 mmHg 59%
    07:00 +18°C° 0 mm 1 mps 751 mmHg 56%
    08:00 +19°C° 0 mm 1 mps 751 mmHg 52%
    09:00 +20°C° 0 mm 1 mps 751 mmHg 45%
    10:00 +21°C° 0 mm 1 mps 751 mmHg 38%
    11:00 +22°C° 0 mm 1 mps 750 mmHg 32%
    12:00 +23°C° 0 mm 2 mps 750 mmHg 28%
    13:00 +24°C° 0 mm 3 mps 749 mmHg 25%
    14:00 +25°C° 0 mm 4 mps 749 mmHg 21%
    15:00 +25°C° 0 mm 4 mps 748 mmHg 23%
    16:00 +25°C° 0 mm 5 mps 748 mmHg 24%
    17:00 +23°C° 0 mm 6 mps 748 mmHg 26%
    18:00 +22°C° 0 mm 5 mps 749 mmHg 29%
    19:00 +22°C° 0 mm 5 mps 749 mmHg 33%
    20:00 +21°C° 0 mm 5 mps 750 mmHg 36%
    21:00 +20°C° 0 mm 4 mps 750 mmHg 38%
    22:00 +20°C° 0 mm 3 mps 750 mmHg 40%
    23:00 +19°C° 0 mm 2 mps 750 mmHg 42%

    Day after tomorrow, 21 April, Sunday

    Time Temperature Precipitation Wind Pressure Humidity
    00:00 +18°C° 0 mm 2 mps 750 mmHg 47%
    01:00 +18°C° 0 mm 3 mps 750 mmHg 52%
    02:00 +17°C° 0 mm 4 mps 750 mmHg 57%
    03:00 +16°C° 0 mm 3 mps 750 mmHg 59%
    04:00 +16°C° 0 mm 3 mps 750 mmHg 61%
    05:00 +14°C° 0 mm 3 mps 750 mmHg 63%
    06:00 +16°C° 0 mm 3 mps 750 mmHg 60%
    07:00 +16°C° 0 mm 3 mps 750 mmHg 58%
    08:00 +17°C° 0 mm 3 mps 750 mmHg 56%
    09:00 +18°C° 0 mm 4 mps 750 mmHg 51%
    10:00 +19°C° 0 mm 5 mps 750 mmHg 46%
    11:00 +20°C° 0 mm 6 mps 750 mmHg 41%
    12:00 +21°C° 0 mm 7 mps 750 mmHg 36%
    13:00 +22°C° 0 mm 8 mps 749 mmHg 32%
    14:00 +22°C° 0 mm 8 mps 749 mmHg 28%
    15:00 +22°C° 0 mm 8 mps 749 mmHg 28%
    16:00 +22°C° 0 mm 8 mps 749 mmHg 28%
    17:00 +21°C° 0 mm 9 mps 749 mmHg 28%
    18:00 +20°C° 0 mm 7 mps 750 mmHg 30%
    19:00 +19°C° 0 mm 6 mps 750 mmHg 32%
    20:00 +17°C° 0 mm 5 mps 751 mmHg 35%
    21:00 +18°C° 0 mm 4 mps 751 mmHg 37%
    22:00 +17°C° 0 mm 4 mps 751 mmHg 40%
    23:00 +16°C° 0 mm 3 mps 751 mmHg 43%

    22 April, Monday

    Time Temperature Precipitation Wind Pressure Humidity
    00:00 +16°C° 0 mm 3 mps 751 mmHg 46%
    01:00 +15°C° 0 mm 2 mps 751 mmHg 49%
    02:00 +15°C° 0 mm 2 mps 750 mmHg 52%
    03:00 +14°C° 0 mm 2 mps 750 mmHg 54%
    04:00 +14°C° 0 mm 2 mps 750 mmHg 57%
    05:00 +13°C° 0 mm 1 mps 751 mmHg 60%
    06:00 +14°C° 0 mm 2 mps 751 mmHg 56%
    07:00 +15°C° 0 mm 2 mps 751 mmHg 52%
    08:00 +16°C° 0 mm 2 mps 751 mmHg 48%
    09:00 +17°C° 0 mm 2 mps 751 mmHg 42%
    10:00 +19°C° 0 mm 3 mps 751 mmHg 36%
    11:00 +20°C° 0 mm 3 mps 751 mmHg 30%
    12:00 +21°C° 0 mm 3 mps 750 mmHg 27%
    13:00 +22°C° 0 mm 4 mps 750 mmHg 25%
    14:00 +23°C° 0 mm 5 mps 750 mmHg 23%
    15:00 +23°C° 0 mm 5 mps 750 mmHg 24%
    16:00 +23°C° 0 mm 5 mps 750 mmHg 25%
    17:00 +22°C° 0 mm 6 mps 750 mmHg 27%
    18:00 +22°C° 0 mm 5 mps 751 mmHg 30%
    19:00 +21°C° 0 mm 4 mps 751 mmHg 33%
    20:00 +20°C° 0 mm 4 mps 752 mmHg 36%
    21:00 +19°C° 0 mm 3 mps 752 mmHg 38%
    22:00 +19°C° 0 mm 3 mps 752 mmHg 40%
    23:00 +18°C° 0 mm 2 mps 753 mmHg 42%

    23 April, Tuesday

    Time Temperature Precipitation Wind Pressure Humidity
    00:00 +17°C° 0 mm 2 mps 752 mmHg 43%
    01:00 +17°C° 0 mm 2 mps 752 mmHg 44%
    02:00 +16°C° 0 mm 2 mps 752 mmHg 45%
    03:00 +16°C° 0 mm 2 mps 752 mmHg 45%
    04:00 +16°C° 0 mm 2 mps 753 mmHg 44%
    05:00 +15°C° 0 mm 2 mps 753 mmHg 43%
    06:00 +17°C° 0 mm 3 mps 753 mmHg 38%
    07:00 +18°C° 0 mm 3 mps 754 mmHg 32%
    08:00 +19°C° 0 mm 3 mps 754 mmHg 27%
    09:00 +21°C° 0 mm 4 mps 754 mmHg 23%
    10:00 +23°C° 0 mm 4 mps 754 mmHg 19%
    11:00 +26°C° 0 mm 4 mps 754 mmHg 15%
    12:00 +27°C° 0 mm 5 mps 753 mmHg 14%
    13:00 +28°C° 0 mm 5 mps 753 mmHg 13%
    14:00 +28°C° 0 mm 5 mps 752 mmHg 12%
    15:00 +28°C° 0 mm 5 mps 752 mmHg 14%
    16:00 +28°C° 0 mm 5 mps 752 mmHg 15%
    17:00 +27°C° 0 mm 5 mps 752 mmHg 16%
    18:00 +26°C° 0 mm 5 mps 753 mmHg 19%
    19:00 +25°C° 0 mm 4 mps 753 mmHg 22%
    20:00 +24°C° 0 mm 3 mps 754 mmHg 26%
    21:00 +24°C° 0 mm 3 mps 754 mmHg 28%
    22:00 +22°C° 0 mm 3 mps 754 mmHg 30%
    23:00 +22°C° 0 mm 3 mps 754 mmHg 33%

    24 April, Wednesday

    Time Temperature Precipitation Wind Pressure Humidity
    00:00 +21°C° 0 mm 3 mps 754 mmHg 34%
    01:00 +21°C° 0 mm 3 mps 754 mmHg 36%
    02:00 +20°C° 0 mm 3 mps 754 mmHg 37%
    03:00 +20°C° 0 mm 3 mps 754 mmHg 39%
    04:00 +20°C° 0 mm 3 mps 754 mmHg 40%
    05:00 +19°C° 0 mm 3 mps 754 mmHg 42%
    06:00 +21°C° 0 mm 3 mps 754 mmHg 36%
    07:00 +22°C° 0 mm 3 mps 754 mmHg 30%
    08:00 +25°C° 0 mm 2 mps 754 mmHg 25%
    09:00 +27°C° 0 mm 3 mps 754 mmHg 22%
    10:00 +28°C° 0 mm 3 mps 754 mmHg 18%
    11:00 +30°C° 0 mm 3 mps 753 mmHg 15%
    12:00 +31°C° 0 mm 3 mps 753 mmHg 14%
    13:00 +33°C° 0 mm 3 mps 752 mmHg 13%
    14:00 +34°C° 0 mm 3 mps 752 mmHg 11%
    15:00 +34°C° 0 mm 4 mps 751 mmHg 11%
    16:00 +34°C° 0 mm 4 mps 751 mmHg 11%
    17:00 +34°C° 0 mm 4 mps 751 mmHg 11%
    18:00 +33°C° 0 mm 4 mps 751 mmHg 13%
    19:00 +30°C° 0 mm 4 mps 752 mmHg 15%
    20:00 +29°C° 0 mm 4 mps 752 mmHg 16%
    21:00 +28°C° 0 mm 4 mps 752 mmHg 19%
    22:00 +27°C° 0 mm 3 mps 752 mmHg 22%
    23:00 +26°C° 0 mm 3 mps 752 mmHg 25%
    Show more